Time,TemperatureF,DewpointF,PressureIn,WindDirection,WindDirectionDegrees,WindSpeedMPH,WindSpeedGustMPH,Humidity,HourlyPrecipIn,Conditions,Clouds,dailyrainin,SolarRadiationWatts/m^2,SoftwareType,DateUTC
2013-07-15 00:02:00,76.0,63.0,-100.00,ESE,117,6.0,11.0,65,0.00,,,0.00,0.000000,,2013-07-15 05:02:00,
2013-07-15 00:11:00,76.0,63.0,-100.00,ESE,117,6.0,11.0,65,0.00,,,0.00,0.000000,,2013-07-15 05:11:00,
2013-07-15 00:43:00,74.0,65.0,-100.00,SE,124,6.0,12.0,74,0.00,,,0.00,0.000000,,2013-07-15 05:43:00,
2013-07-15 00:53:00,74.0,65.0,-100.00,SE,124,6.0,12.0,74,0.00,,,0.00,0.000000,,2013-07-15 05:53:00,
2013-07-15 01:02:00,74.0,65.0,-100.00,SE,124,6.0,12.0,74,0.00,,,0.00,0.000000,,2013-07-15 06:02:00,
2013-07-15 01:11:00,74.0,65.0,-100.00,SE,124,6.0,12.0,74,0.00,,,0.00,0.000000,,2013-07-15 06:11:00,
2013-07-15 01:42:00,72.0,65.0,-100.00,ESE,122,4.0,9.0,78,0.00,,,0.00,0.000000,,2013-07-15 06:42:00,
2013-07-15 01:53:00,72.0,65.0,-100.00,ESE,122,4.0,9.0,78,0.00,,,0.00,0.000000,,2013-07-15 06:53:00,
2013-07-15 02:01:00,72.0,65.0,-100.00,ESE,122,4.0,9.0,78,0.00,,,0.00,0.000000,,2013-07-15 07:01:00,
2013-07-15 02:11:00,72.0,65.0,-100.00,ESE,122,4.0,9.0,78,0.00,,,0.00,0.000000,,2013-07-15 07:11:00,
2013-07-15 02:44:00,71.0,66.0,-100.00,ESE,107,4.0,6.0,83,0.00,,,0.00,0.000000,,2013-07-15 07:44:00,
2013-07-15 02:53:00,71.0,66.0,-100.00,ESE,107,4.0,6.0,83,0.00,,,0.00,0.000000,,2013-07-15 07:53:00,
2013-07-15 03:01:00,71.0,66.0,-100.00,ESE,107,4.0,6.0,83,0.00,,,0.00,0.000000,,2013-07-15 08:01:00,
2013-07-15 03:11:00,71.0,66.0,-100.00,ESE,107,4.0,6.0,83,0.00,,,0.00,0.000000,,2013-07-15 08:11:00,
2013-07-15 03:43:00,70.0,65.0,-100.00,ESE,121,3.0,5.0,84,0.00,,,0.00,0.000000,,2013-07-15 08:43:00,
2013-07-15 03:53:00,70.0,65.0,-100.00,ESE,121,3.0,5.0,84,0.00,,,0.00,0.000000,,2013-07-15 08:53:00,
2013-07-15 04:02:00,70.0,65.0,-100.00,ESE,121,3.0,5.0,84,0.00,,,0.00,0.000000,,2013-07-15 09:02:00,
2013-07-15 04:11:00,70.0,65.0,-100.00,ESE,121,3.0,5.0,84,0.00,,,0.00,0.000000,,2013-07-15 09:11:00,
2013-07-15 04:43:00,69.0,65.0,-100.00,East,90,2.0,5.0,88,0.00,,,0.00,0.000000,,2013-07-15 09:43:00,
2013-07-15 04:52:00,69.0,65.0,-100.00,East,90,2.0,5.0,88,0.00,,,0.00,0.000000,,2013-07-15 09:52:00,
2013-07-15 05:02:00,69.0,65.0,-100.00,East,90,2.0,5.0,88,0.00,,,0.00,0.000000,,2013-07-15 10:02:00,
2013-07-15 05:11:00,69.0,65.0,-100.00,East,90,2.0,5.0,88,0.00,,,0.00,0.000000,,2013-07-15 10:11:00,
2013-07-15 05:43:00,68.0,65.0,-100.00,East,87,3.0,5.0,91,0.00,,,0.00,0.000000,,2013-07-15 10:43:00,
2013-07-15 05:53:00,68.0,65.0,-100.00,East,87,3.0,5.0,91,0.00,,,0.00,0.000000,,2013-07-15 10:53:00,
2013-07-15 06:02:00,68.0,65.0,-100.00,East,87,3.0,5.0,91,0.00,,,0.00,0.000000,,2013-07-15 11:02:00,
2013-07-15 06:11:00,68.0,65.0,-100.00,East,87,3.0,5.0,91,0.00,,,0.00,0.000000,,2013-07-15 11:11:00,
2013-07-15 06:32:00,68.0,65.0,-100.00,ESE,112,4.0,6.0,90,0.00,,,0.00,2.000000,,2013-07-15 11:32:00,
2013-07-15 06:42:00,68.0,65.0,-100.00,ESE,112,4.0,6.0,90,0.00,,,0.00,2.000000,,2013-07-15 11:42:00,
2013-07-15 06:52:00,68.0,65.0,-100.00,ESE,112,4.0,6.0,90,0.00,,,0.00,2.000000,,2013-07-15 11:52:00,
2013-07-15 07:01:00,68.0,65.0,-100.00,ESE,112,4.0,6.0,90,0.00,,,0.00,2.000000,,2013-07-15 12:01:00,
2013-07-15 07:11:00,68.0,65.0,-100.00,ESE,112,4.0,6.0,90,0.00,,,0.00,2.000000,,2013-07-15 12:11:00,
2013-07-15 07:42:00,69.0,67.0,-100.00,ESE,107,3.0,6.0,92,0.00,,,0.00,41.000000,,2013-07-15 12:42:00,
2013-07-15 07:53:00,69.0,67.0,-100.00,ESE,107,3.0,6.0,92,0.00,,,0.00,41.000000,,2013-07-15 12:53:00,
2013-07-15 08:01:00,69.0,67.0,-100.00,ESE,107,3.0,6.0,92,0.00,,,0.00,41.000000,,2013-07-15 13:01:00,
2013-07-15 08:11:00,69.0,67.0,-100.00,ESE,107,3.0,6.0,92,0.00,,,0.00,41.000000,,2013-07-15 13:11:00,
2013-07-15 08:43:00,70.0,68.0,-100.00,SE,139,5.0,9.0,92,0.00,,,0.00,71.000000,,2013-07-15 13:43:00,
2013-07-15 08:53:00,70.0,68.0,-100.00,SE,139,5.0,9.0,92,0.00,,,0.00,71.000000,,2013-07-15 13:53:00,
2013-07-15 09:02:00,70.0,68.0,-100.00,SE,139,5.0,9.0,92,0.00,,,0.00,71.000000,,2013-07-15 14:02:00,
2013-07-15 09:11:00,70.0,68.0,-100.00,SE,139,5.0,9.0,92,0.00,,,0.00,71.000000,,2013-07-15 14:11:00,
2013-07-15 09:13:00,75.0,71.0,-100.00,SE,131,5.0,11.0,86,0.00,,,0.00,273.000000,,2013-07-15 14:13:00,
2013-07-15 09:42:00,75.0,71.0,-100.00,SE,131,5.0,11.0,86,0.00,,,0.00,273.000000,,2013-07-15 14:42:00,
2013-07-15 10:01:00,75.0,71.0,-100.00,SE,131,5.0,11.0,86,0.00,,,0.00,273.000000,,2013-07-15 15:01:00,
2013-07-15 10:13:00,76.0,69.0,-100.00,SE,140,4.0,12.0,78,0.00,,,0.00,365.000000,,2013-07-15 15:13:00,
2013-07-15 10:49:00,76.0,69.0,-100.00,SE,140,4.0,12.0,78,0.00,,,0.00,365.000000,,2013-07-15 15:49:00,
2013-07-15 11:13:00,81.0,72.0,-100.00,ESE,121,5.0,9.0,73,0.00,,,0.00,518.000000,,2013-07-15 16:13:00,
2013-07-15 11:49:00,81.0,72.0,-100.00,ESE,121,5.0,9.0,73,0.00,,,0.00,518.000000,,2013-07-15 16:49:00,
2013-07-15 12:06:00,81.0,72.0,-100.00,ESE,121,5.0,9.0,73,0.00,,,0.00,518.000000,,2013-07-15 17:06:00,
2013-07-15 12:13:00,84.0,69.0,-100.00,ESE,120,6.0,12.0,61,0.00,,,0.00,1001.000000,,2013-07-15 17:13:00,
2013-07-15 12:50:00,84.0,69.0,-100.00,ESE,120,6.0,12.0,61,0.00,,,0.00,1001.000000,,2013-07-15 17:50:00,
2013-07-15 13:00:00,84.0,69.0,-100.00,ESE,120,6.0,12.0,61,0.00,,,0.00,1001.000000,,2013-07-15 18:00:00,
2013-07-15 13:05:00,84.0,69.0,-100.00,ESE,120,6.0,12.0,61,0.00,,,0.00,1001.000000,,2013-07-15 18:05:00,
2013-07-15 13:45:00,86.0,69.0,-100.00,SE,141,4.0,9.0,58,0.00,,,0.00,901.000000,,2013-07-15 18:45:00,
2013-07-15 13:59:00,86.0,69.0,-100.00,SE,141,4.0,9.0,58,0.00,,,0.00,901.000000,,2013-07-15 18:59:00,
2013-07-15 14:05:00,86.0,69.0,-100.00,SE,141,4.0,9.0,58,0.00,,,0.00,901.000000,,2013-07-15 19:05:00,
2013-07-15 14:11:00,86.0,69.0,-100.00,SE,141,4.0,9.0,58,0.00,,,0.00,901.000000,,2013-07-15 19:11:00,
2013-07-15 14:13:00,89.0,68.0,-100.00,South,174,3.0,9.0,50,0.00,,,0.00,967.000000,,2013-07-15 19:13:00,
2013-07-15 14:38:00,89.0,68.0,-100.00,South,174,3.0,9.0,50,0.00,,,0.00,967.000000,,2013-07-15 19:38:00,
2013-07-15 14:49:00,89.0,68.0,-100.00,South,174,3.0,9.0,50,0.00,,,0.00,967.000000,,2013-07-15 19:49:00,
2013-07-15 14:56:00,89.0,68.0,-100.00,South,174,3.0,9.0,50,0.00,,,0.00,967.000000,,2013-07-15 19:56:00,
2013-07-15 15:43:00,86.0,65.0,-100.00,ESE,118,5.0,9.0,50,0.00,,,0.00,524.000000,,2013-07-15 20:43:00,
2013-07-15 15:58:00,86.0,65.0,-100.00,ESE,118,5.0,9.0,50,0.00,,,0.00,524.000000,,2013-07-15 20:58:00,
2013-07-15 16:12:00,86.0,65.0,-100.00,ESE,118,5.0,9.0,50,0.00,,,0.00,524.000000,,2013-07-15 21:12:00,
2013-07-15 16:48:00,87.0,68.0,-100.00,ENE,66,4.0,8.0,54,0.00,,,0.00,537.000000,,2013-07-15 21:48:00,
2013-07-15 17:01:00,87.0,68.0,-100.00,ENE,66,4.0,8.0,54,0.00,,,0.00,537.000000,,2013-07-15 22:01:00,
2013-07-15 17:13:00,88.0,68.0,-100.00,East,81,6.0,11.0,52,0.00,,,0.00,692.000000,,2013-07-15 22:13:00,
2013-07-15 17:44:00,88.0,68.0,-100.00,East,81,6.0,11.0,52,0.00,,,0.00,692.000000,,2013-07-15 22:44:00,
2013-07-15 17:54:00,88.0,68.0,-100.00,East,81,6.0,11.0,52,0.00,,,0.00,692.000000,,2013-07-15 22:54:00,
2013-07-15 18:06:00,88.0,68.0,-100.00,East,81,6.0,11.0,52,0.00,,,0.00,692.000000,,2013-07-15 23:06:00,
2013-07-15 18:50:00,86.0,69.0,-100.00,East,80,6.0,12.0,57,0.00,,,0.00,452.000000,,2013-07-15 23:50:00,
2013-07-15 19:03:00,86.0,69.0,-100.00,East,80,6.0,12.0,57,0.00,,,0.00,452.000000,,2013-07-16 00:03:00,
2013-07-15 20:49:00,79.0,69.0,-100.00,East,82,2.0,6.0,71,-99.99,,,0.00,37.000000,,2013-07-16 01:49:00,
2013-07-15 21:02:00,79.0,69.0,-100.00,East,82,2.0,6.0,71,-99.99,,,0.00,37.000000,,2013-07-16 02:02:00,
2013-07-15 21:11:00,79.0,69.0,-100.00,East,82,2.0,6.0,71,-99.99,,,0.00,37.000000,,2013-07-16 02:11:00,
2013-07-15 21:13:00,77.0,69.0,-100.00,East,84,2.0,3.0,76,0.00,,,0.00,4.000000,,2013-07-16 02:13:00,
2013-07-15 21:52:00,77.0,69.0,-100.00,East,84,2.0,3.0,76,0.00,,,0.00,4.000000,,2013-07-16 02:52:00,
2013-07-15 22:08:00,77.0,69.0,-100.00,East,84,2.0,3.0,76,0.00,,,0.00,4.000000,,2013-07-16 03:08:00,
2013-07-15 22:49:00,78.0,69.0,-100.00,ESE,116,4.0,7.0,75,0.00,,,-99.99,0.000000,,2013-07-16 03:49:00,
2013-07-15 22:58:00,78.0,69.0,-100.00,ESE,116,4.0,7.0,75,0.00,,,-99.99,0.000000,,2013-07-16 03:58:00,
2013-07-15 23:01:00,78.0,69.0,-100.00,ESE,116,4.0,7.0,75,0.00,,,-99.99,0.000000,,2013-07-16 04:01:00,
2013-07-15 23:12:00,78.0,69.0,-100.00,ESE,116,4.0,7.0,75,0.00,,,-99.99,0.000000,,2013-07-16 04:12:00,